Tracking 30061 objects as of 9-Dec-2024
HD Live streaming from Space Station
objects crossing your sky now

COSMOS 1261 DEB

Track COSMOS 1261 DEB now!


NORAD ID: 48264
Int'l Code: 1981-031P
Perigee: 216.6 km
Apogee: 39,694.5 km
Inclination: 62.3 °
Period: 708.5 minutes
Semi major axis: 26326 km
RCS: Unknown
Launch date: March 31, 1981
Source: Commonwealth of Independent States (former USSR) (CIS)
Launch site: PLESETSK MISSILE AND SPACE COMPLEX (PKMTR)

Note: This is SATELLITE DEBRIS
Your satellite tracking list
Your tracking list is empty




NASA's NSSDC Master Catalog

Two Line Element Set (TLE):
1 48264U 81031P   24343.23406396  .00017673  00000-0  24973-2 0  9997
2 48264  62.3048  76.5489 7497720  51.7017 354.3615  2.03240897 81219
Source of the keplerian elements: AFSPC